www.pogodaiklimat.ru

Погода и климат >> Архив погоды >> Иран >> Остров Абу-Муса


ПОГОДА на Острове Абу-Муса

  • Прогноз погоды на Острове Абу-Муса
  • Монитор погоды на Острове Абу-Муса

АРХИВ ПОГОДЫ на Острове Абу-Муса

Время (UTC), дата Ветер
(напр.,м/с)
 
Видим.   Явления Облачность Т
(С)
Тd
(С)
f
(%)
Тe
(С)
Тes
(С)
Комфортность P
(гПа)
Po
(гПа)
Тmin
(С)
Tmax
(С)
R
(мм)
R24
(мм)
S
(см)
03 13.08 В 5 5000 м дымка 4/0
[Ac und]
+33.0 +29.0 80 +57 +57 опасность
перегрева
996.5 995.8 +32.4
06 13.08 СВ 5 6000 м мгла ясно +35.6 +30.2 74 +63 +71 опасность
перегрева
999.3 998.6
09 13.08 СВ 2 6000 м мгла ясно +37.4 +27.1 56 +55 +76 опасность
перегрева
998.4 997.7
12 13.08 СВ 3 6000 м мгла ясно +37.0 +30.1 68 +64 +71 опасность
перегрева
996.9 996.2
15 13.08 СВ 2 6000 м мгла 3/0
[Ac und]
+36.6 +25.9 54 +52 +52 опасность
перегрева
996.9 996.2 +38.8
03 14.08 СВ 6 10 км ясно +33.0 +29.0 80 +57 +57 опасность
перегрева
998.0 997.3 +32.8
06 14.08 СВ 5 6000 м мгла ясно +35.0 +30.1 76 +62 +70 опасность
перегрева
999.7 999.0
09 14.08 В 5 6000 м мгла ясно +37.6 +25.8 51 +52 +63 опасность
перегрева
999.1 998.4
12 14.08 СВ 3 6000 м мгла ясно +39.0 +30.1 61 +65 +72 опасность
перегрева
997.5 996.8
15 14.08 С 2 6000 м мгла 3/0
[Ci fib]
+35.6 +25.4 56 +50 +50 опасность
перегрева
997.7 997.0 +39.0
03 15.08 СВ 4 6000 м дымка ясно +33.0 +29.3 81 +58 +58 опасность
перегрева
1000.0 999.3 +32.6
06 15.08 В 4 6000 м мгла ясно +35.8 +30.1 73 +63 +73 опасность
перегрева
1000.9 1000.2
09 15.08 В 3 6000 м мгла ясно +38.0 +28.7 59 +60 +77 опасность
перегрева
1000.5 999.8
12 15.08 С 2 6000 м мгла ясно +28.6 998.0 997.3
15 15.08 СВ 3 6000 м мгла ясно +36.0 +25.5 55 +51 +51 опасность
перегрева
997.6 996.9 +39.2
03 16.08 ЮВ 3 6000 м мгла ясно +32.6 +28.6 80 +55 +56 опасность
перегрева
999.1 998.4 +32.0
06 16.08 Ю 3 6000 м мгла ясно +38.0 +30.0 64 +64 +77 опасность
перегрева
1000.1 999.4
09 16.08 З 3 6000 м мгла ясно +37.6 +26.4 53 +54 +71 опасность
перегрева
999.6 998.9
12 16.08 З 2 6000 м мгла ясно +30.0 998.0 997.2
15 16.08 С 4 3500 м мгла 1/1 750 м
[Sc]
+35.2 +27.6 65 +55 +55 опасность
перегрева
997.5 996.7 +38.4
03 17.08 СВ 4 10 км ясно +32.8 +29.1 81 +57 +58 опасность
перегрева
996.9 996.2 +30.4
06 17.08 С 3 10 км ясно +35.6 +30.0 73 +63 +75 опасность
перегрева
998.8 998.1
09 17.08 С 4 6000 м мгла ясно +36.8 +26.1 54 +52 +66 опасность
перегрева
998.6 997.8
12 17.08 С 3 6000 м мгла ясно +36.8 +30.0 68 +63 +70 опасность
перегрева
996.7 995.9
15 17.08 СЗ 2 5000 м мгла ясно +36.2 +24.1 50 +48 +48 опасность
перегрева
996.7 996.0 +37.8
03 18.08 СВ 5 10 км ясно +33.2 +28.1 75 +54 +55 опасность
перегрева
998.3 997.6 +32.8
06 18.08 ЮВ 7 10 км ясно +36.6 +30.2 70 +64 +68 опасность
перегрева
1000.7 1000.0
09 18.08 ЮЗ 3 6000 м мгла ясно +38.2 +23.9 44 +49 +66 опасность
перегрева
1000.2 999.5
12 18.08 СВ 5 5000 м мгла ясно +37.2 +30.2 68 +65 +69 опасность
перегрева
999.3 998.6
15 18.08 СВ 3 5000 м мгла ясно +35.4 +26.0 58 +51 +51 опасность
перегрева
999.1 998.4 +39.0
03 19.08 В 7 10 км ясно +31.8 +27.7 79 +51 +52 опасность
перегрева
1001.6 1000.9 +31.4
06 19.08 ЮВ 6 10 км ясно +34.8 +30.3 78 +63 +69 опасность
перегрева
1003.6 1002.9
09 19.08 Ю 2 5000 м мгла 1/0
[Ci fib]
+38.2 +23.9 44 +49 +69 опасность
перегрева
1002.3 1001.6
12 19.08 СВ 4 4500 м мгла 1/0
[Ci fib]
+36.4 +30.1 70 +63 +68 опасность
перегрева
1001.7 1001.0
15 19.08 СВ 3 4000 м мгла ясно +35.0 +25.3 57 +49 +49 опасность
перегрева
1001.5 1000.7 +39.0

 

Местоположение метеостанции Остров Абу-Муса (Иран): широта 25.83 долгота 54.83 высота над уровнем моря 6 м.

В архиве по умолчанию представлена погода на Острове Абу-Муса за последнюю неделю. Архивные данные за месяц целиком и за предыдущие месяцы, начиная с января 2011 года, Вы можете получить, выбрав интересующий диапазон дат из раскрывающегося списка и нажав кнопку "Ввод!".


*Определитесь, кто Вы:
робот инопланетянин человек

Внимание! Время в таблицах - всемирное. Для получения местного времени необходимо прибавить поправку, которая равна 3.5 ч.

Смотрите также архив погоды в соседних городах и на ближайших метеорологических станциях:

Погода на Острове Сирри (Иран) (29 км)
Погода в Дубае (ОАЭ) (82 км)
Погода в Бендер-Ленге (Иран) (83 км)
Погода в Шардже (ОАЭ) (89 км)
Погода в Аль-Мактум аэропорту (ОАЭ) (109 км)
Погода в Рай-эль-Хайма аэропорту (ОАЭ) (113 км)
Погода на Острове Киш (Иран) (113 км)
Погода в Дибе (Оман) (144 км)
Погода в Эль-Хасаб аэропорту (Оман) (145 км)
Погода в Эль-Хасабе (Оман) (147 км)

Пояснения к столбцам:

Ветер - указаны скорость ветра в м/с - средняя за 10 мин, порывы в срок и между сроками (в фигурных скобках) и направление, откуда дует ветер: С - северный, СВ - северо-восточный, В - восточный, ЮВ - юго-восточный, Ю - южный, ЮЗ - юго-западный, З - западный, СЗ - северо-западный.
Видимость - горизонтальная дальность видимости в метрах или километрах. При видимости от 1 до 10 км при отсутствии осадков обычно наблюдается дымка, при ухудшении видимости до 1 км и менее - туман. В сухую погоду видимость может ухудшаться дымом, пылью или мглою.
Явления - указаны атмосферные явления, наблюдавшиеся в срок или в последний час перед сроком; фигурными скобками обозначены явления, наблюдавшиеся между сроками (за 1-3 часа до срока); квадратными скобками обозначены град или гололедные отложения с указанием их диаметра в мм.
Облачность - указаны через наклонную черту общая и нижняя облачность в баллах и высота нижней границы облаков в метрах; квадратными скобками обозначены формы облаков: Ci - перистые, Cs - перисто-слоистые, Cc - перисто-кучевые, Ac - высококучевые, As - высокослоистые, Sc - слоисто-кучевые, Ns - слоисто-дождевые, Cu - кучевые, Cb - кучево-дождевые. Подробнее классификацию облаков см. в Атласе облаков (PDF).
T - Температура воздуха - температура, измеренная на высоте 2 м над землей.
Td - Температура точки росы - температура, при понижении до которой содержащийся в воздухе водяной пар достигнет насыщения.
f - Относительная влажность воздуха - влажноcть воздуха, измеренная на высоте 2 м над землей.
Te - Эффективная температура - температура, которую ощущает одетый по сезону человек в тени. Характеристика душности погоды. При расчете учитывается влияние влажности воздуха и скорости ветра на теплоощущения человека.
Tes - Эффективная температура на солнце - температура, которую ощущает человек, с поправкой на солнечный нагрев. Характеристика знойности погоды. Зависит от высоты солнца над горизонтом, облачности и скорости ветра. Ночью, в пасмурную погоду, а также при ветре 12 м/с и более поправка равна нулю.
P - Атмосферное давление - приведенное к уровню моря атмосферное давление.
Po - Атмосферное давление - измеренное на уровне метеостанции атмосферное давление.
Tmin - Минимальная температура - минимум температуры воздуха на высоте 2 м над землей.
Tmax - Максимальная температура - максимум температуры воздуха на высоте 2 м над землей.
R - Количество осадков - Количество выпавших осадков за период времени, мм. При наведении курсора мыши на число - период времени, за который выпало указанное количество осадков.
R24 - Количество осадков - Количество выпавших осадков за 24 часа, мм.
S - Снежный покров - Высота снежного покрова, см. При наведении курсора мыши на число - состояние снежного покрова и степень покрытия местности в баллах.